Location: Ciula Mare
(45.6000°N, 22.8167°E)
Time: 10:15:45
(UTC+00:00)

NOAA 6 - Pass Details

Date: 03 February 2023
Orbit: 771 x 786 km, 98.7° (Epoch: 20 March)

Event Time Altitude Azimuth Distance (km) Brightness Sun altitude
Rises 16:05:00 0° 159° (SSE) 3,248 7.2 -5.3°
Reaches altitude 10° 16:07:18 10° 157° (SSE) 2,327 6.5 -5.7°
Maximum altitude 16:12:25 75° 73° (ENE) 813 4.0 -6.6°
Drops below altitude 10° 16:17:36 10° 349° (N) 2,353 6.5 -7.4°
Sets 16:19:56 0° 348° (NNW) 3,287 7.2 -7.8°
